Погода в Томаковке

Украина / Днепропетровская область     47°48′47″N   34°44′57″E
темп.,
°C
ветер,
м/с
пор.,
м/с
влажн.,
%
обл.,
%
осадки,
мм/ч
давл.,
гПа
погр.,
м
21 апреля, ср
ср2100:00+8з6119048 0.1 1007334
03:00+6з4108795 0.1 1009221
06:00+6зюз3889100 0.0 1012182
09:00+10зюз5767100 0.0 1014552
12:00+13юз675298 0.0 10151461
15:00+15юз584678 0.0 10151923
18:00+14юз475886 0.0 1016833
21:00+10ююз487735 0.1 1017148
22 апреля, чт
чт2200:00+9юз48847 0.0 1018201
03:00+7юз35915 0.0 101990
06:00+7юз33948 0.0 102055
09:00+11ююз33735 0.0 1021429
12:00+15ююз44575 0.0 10211079
15:00+17юз34483 0.0 10211616
18:00+16ююз345043 0.1 1020846
21:00+11ю356921 0.2 102167
23 апреля, пт
пт2300:00+9ююз49885 0.1 1021184
03:00+8ююз37910 0.1 1021165
06:00+7ю48932 0.0 1021157
09:00+12ююз696999 0.0 1020551
12:00+16ююз785058 0.0 10191471
15:00+17ююз7946100 0.1 10172079
18:00+16юз61053100 0.0 1016934
21:00+11ююз51175100 0.3 1016436
24 апреля, сб
сб2400:00+10юз587995 0.1 1015448
03:00+7зсз7987100 1.8 1016556
06:00+6сз48855 0.0 1017539
09:00+9зсз57671 0.0 1018921
12:00+12з68425 0.0 10181986
15:00+11з9104998 0.1 10171787
18:00+11з6104381 0.1 10182391
21:00+7сз48578 0.1 1020237
25 апреля, вс
вс2500:00+5з48670 0.0 1020184
03:00+3з36723 0.0 1021107
06:00+2з37731 0.0 1021145
09:00+8з465245 0.0 1021863
12:00+11з68367 0.0 10202269
15:00+12зсз67335 0.0 10192177
18:00+12зсз463546 0.0 10182286
21:00+8зсз22525 0.0 101912